KO6MEX-13 Weather Reports


time (UTC)temp
C
wind
direction
speed
KPH
gust
KPH
rain 1hr
cm
rain 24hr
cm
rain mn
cm
humidity
%
barometer
mb
20260503224912 18 242 14.5 17.7 0.00 0.00 0.00 51 1017.1
20260503224409 18 221 6.4 16.1 0.00 0.00 0.00 51 1017.1
20260503223907 18 162 3.2 14.5 0.00 0.00 0.00 51 1017.0
20260503223405 18 132 3.2 14.5 0.00 0.00 0.00 49 1017.2
20260503222859 18 248 11.3 12.9 0.00 0.00 0.00 50 1017.2
20260503222358 18 246 4.8 11.3 0.00 0.00 0.00 50 1017.0
20260503221856 18 224 9.7 12.9 0.00 0.00 0.00 51 1017.2
20260503221355 19 234 4.8 9.7 0.00 0.00 0.00 49 1017.4
20260503220850 18 194 9.7 12.9 0.00 0.00 0.00 51 1017.3
20260503220347 18 231 8.0 12.9 0.00 0.00 0.00 50 1017.3
20260503215844 18 233 8.0 16.1 0.00 0.00 0.00 49 1017.3
20260503215341 18 188 6.4 12.9 0.00 0.00 0.00 49 1017.4
20260503214839 18 201 9.7 12.9 0.00 0.00 0.00 52 1017.3
20260503214336 19 256 14.5 24.1 0.00 0.00 0.00 48 1017.5
20260503213833 18 260 3.2 4.8 0.00 0.00 0.00 53 1017.6
20260503213331 17 282 8.0 16.1 0.00 0.00 0.00 53 1017.5
20260503212828 17 229 11.3 16.1 0.00 0.00 0.00 56 1017.4
20260503212326 18 224 16.1 17.7 0.00 0.00 0.00 55 1017.2
20260503211823 17 229 3.2 12.9 0.00 0.00 0.00 58 1017.6
20260503211319 17 188 11.3 14.5 0.00 0.00 0.00 58 1017.4
20260503210819 17 181 12.9 16.1 0.00 0.00 0.00 56 1017.7
20260503210317 18 205 9.7 16.1 0.00 0.00 0.00 55 1017.7
20260503205812 18 198 9.7 16.1 0.00 0.00 0.00 55 1017.5
20260503205309 18 257 4.8 9.7 0.00 0.00 0.00 56 1017.4
20260503204805 18 229 11.3 16.1 0.00 0.00 0.00 55 1017.4
20260503204303 17 205 6.4 14.5 0.00 0.00 0.00 58 1017.6
20260503203800 17 186 6.4 14.5 0.00 0.00 0.00 60 1017.8
20260503203257 17 237 11.3 14.5 0.00 0.00 0.00 58 1017.9
20260503202754 17 163 3.2 22.5 0.00 0.00 0.00 61 1017.9
20260503202252 18 219 11.3 22.5 0.00 0.00 0.00 57 1017.7
20260503201750 17 217 3.2 11.3 0.00 0.00 0.00 62 1017.8
20260503201247 17 209 6.4 20.9 0.00 0.00 0.00 62 1017.8
20260503200744 17 230 14.5 16.1 0.00 0.00 0.00 60 1017.7
20260503200240 17 222 12.9 17.7 0.00 0.00 0.00 55 1017.8
20260503195737 17 198 6.4 14.5 0.00 0.00 0.00 59 1017.9
20260503195234 17 199 14.5 17.7 0.00 0.00 0.00 57 1017.8
20260503194732 17 159 9.7 16.1 0.00 0.00 0.00 57 1017.9
20260503194227 17 191 9.7 17.7 0.00 0.00 0.00 57 1018.0
20260503193723 17 196 8.0 17.7 0.00 0.00 0.00 57 1017.9
20260503193219 17 210 11.3 17.7 0.00 0.00 0.00 56 1017.6
20260503192715 17 207 6.4 14.5 0.00 0.00 0.00 54 1017.8
20260503192211 17 242 9.7 16.1 0.00 0.00 0.00 52 1018.0
20260503191708 17 205 8.0 12.9 0.00 0.00 0.00 54 1017.6
20260503191205 17 293 11.3 16.1 0.00 0.00 0.00 53 1018.0
20260503190701 18 180 8.0 9.7 0.00 0.00 0.00 50 1017.9
20260503190158 18 204 6.4 9.7 0.00 0.00 0.00 51 1017.8
20260503185655 17 195 6.4 12.9 0.00 0.00 0.00 51 1017.8
20260503185150 18 83 4.8 9.7 0.00 0.00 0.00 51 1018.0
20260503184645 17 168 3.2 8.0 0.00 0.00 0.00 50 1017.9
20260503184142 17 241 9.7 12.9 0.00 0.00 0.00 51 1018.1
20260503183638 17 186 1.6 8.0 0.00 0.00 0.00 50 1018.1
20260503183136 17 219 4.8 8.0 0.00 0.00 0.00 50 1018.2
20260503182634 17 227 8.0 9.7 0.00 0.00 0.00 49 1018.0
20260503182132 17 217 6.4 9.7 0.00 0.00 0.00 51 1018.2
20260503181629 17 140 1.6 4.8 0.00 0.00 0.00 53 1018.1
20260503181126 16 185 3.2 8.0 0.00 0.00 0.00 52 1018.1
20260503180622 16 214 4.8 11.3 0.00 0.00 0.00 53 1018.3
20260503180120 16 212 6.4 8.0 0.00 0.00 0.00 53 1018.2
20260503175617 16 164 3.2 4.8 0.00 0.00 0.00 55 1018.1
20260503175114 16 244 4.8 8.0 0.00 0.00 0.00 55 1018.1
20260503174611 16 155 1.6 8.0 0.00 0.00 0.00 54 1018.2
20260503174108 16 283 4.8 9.7 0.00 0.00 0.00 56 1018.1
20260503173603 16 207 4.8 9.7 0.00 0.00 0.00 56 1018.4
20260503173100 16 211 4.8 11.3 0.00 0.00 0.00 57 1018.1
20260503172556 15 120 0.0 14.5 0.00 0.00 0.00 60 1018.2
20260503172054 16 164 1.6 8.0 0.00 0.00 0.00 60 1018.1
20260503171550 15 88 1.6 9.7 0.00 0.00 0.00 61 1018.3
20260503171048 15 187 6.4 14.5 0.00 0.00 0.00 62 1018.1
20260503170544 15 157 1.6 4.8 0.00 0.00 0.00 64 1018.0
20260503150937 13 276 4.8 4.8 0.00 0.00 0.00 76 1017.3
20260503150433 13 229 4.8 8.0 0.00 0.00 0.00 78 1017.2
20260503131326 12 36 0.0 0.0 0.00 0.00 0.00 86 1016.4
20260503130824 12 37 0.0 0.0 0.00 0.00 0.00 86 1016.3
20260503130321 12 36 0.0 0.0 0.00 0.00 0.00 86 1016.3
20260503110714 12 37 0.0 0.0 0.00 0.00 0.00 85 1016.2
20260503110212 12 37 0.0 0.0 0.00 0.00 0.00 85 1016.2
20260503100138 12 37 0.0 0.0 0.00 0.00 0.00 83 1015.9
20260503081533 13 37 0.0 3.2 0.00 0.00 0.00 83 1016.7
20260503081030 13 19 4.8 4.8 0.00 0.00 0.00 82 1016.7
20260503080526 13 53 0.0 0.0 0.00 0.00 0.00 83 1016.7
20260503072500 13 169 1.6 1.6 0.00 0.00 0.00 81 1016.7
20260503071957 13 164 0.0 0.0 0.00 0.00 0.00 81 1016.4
20260503071453 13 42 1.6 1.6 0.00 0.00 0.00 82 1016.5
20260503070950 13 43 0.0 0.0 0.00 0.00 0.00 81 1016.3
20260503070447 13 43 0.0 0.0 0.00 0.00 0.00 81 1016.4
20260503054900 12 35 1.6 1.6 0.00 0.00 0.00 83 1015.9
20260503054356 12 36 1.6 1.6 0.00 0.00 0.00 83 1016.0
20260503053854 12 35 0.0 4.8 0.00 0.00 0.00 83 1015.9
20260503053352 12 43 0.0 0.0 0.00 0.00 0.00 84 1016.2
20260503052848 12 43 0.0 0.0 0.00 0.00 0.00 84 1016.1
20260503052345 12 48 0.0 0.0 0.00 0.00 0.00 85 1016.0
20260503051841 12 70 0.0 0.0 0.00 0.00 0.00 86 1015.9
20260503051338 12 71 0.0 0.0 0.00 0.00 0.00 86 1015.9
20260503050835 12 71 0.0 0.0 0.00 0.00 0.00 88 1015.9
20260503050331 11 71 0.0 0.0 0.00 0.00 0.00 88 1015.8
20260503045829 11 84 0.0 0.0 0.00 0.00 0.00 88 1015.7
20260503045326 11 84 0.0 0.0 0.00 0.00 0.00 88 1015.8
20260503044822 11 84 0.0 0.0 0.00 0.00 0.00 88 1015.6
20260503044320 11 84 0.0 0.0 0.00 0.00 0.00 88 1015.5
20260503043817 11 106 0.0 0.0 0.00 0.00 0.00 88 1015.6
20260503043314 12 49 0.0 0.0 0.00 0.00 0.00 87 1015.7
20260503042809 12 49 0.0 0.0 0.00 0.00 0.00 87 1015.7
20260503042307 12 50 0.0 0.0 0.00 0.00 0.00 87 1015.6
20260503041802 12 50 0.0 0.0 0.00 0.00 0.00 86 1015.8
20260503041300 12 49 0.0 0.0 0.00 0.00 0.00 86 1015.5
20260503040758 12 50 0.0 0.0 0.00 0.00 0.00 87 1015.7
20260503040255 12 50 0.0 0.0 0.00 0.00 0.00 86 1015.7
20260503035752 12 50 0.0 0.0 0.00 0.00 0.00 85 1015.6
20260503035249 12 50 0.0 0.0 0.00 0.00 0.00 85 1015.5
20260503034746 12 50 0.0 0.0 0.00 0.00 0.00 84 1015.5
20260503034243 12 49 1.6 3.2 0.00 0.00 0.00 84 1015.5
20260503033741 12 63 0.0 0.0 0.00 0.00 0.00 83 1015.3
20260503033238 12 57 0.0 1.6 0.00 0.00 0.00 83 1015.4
20260503032736 12 41 0.0 0.0 0.00 0.00 0.00 83 1015.5
20260503032235 12 43 0.0 1.6 0.00 0.00 0.00 83 1015.5
20260503031731 12 104 1.6 1.6 0.00 0.00 0.00 84 1015.3
20260503031229 13 177 0.0 3.2 0.00 0.00 0.00 84 1015.7
20260503030725 13 173 0.0 0.0 0.00 0.00 0.00 83 1015.2
20260503030222 13 173 0.0 0.0 0.00 0.00 0.00 82 1015.3
20260503025719 13 173 0.0 0.0 0.00 0.00 0.00 81 1015.1
20260503025217 13 173 0.0 1.6 0.00 0.00 0.00 81 1014.9
20260503024713 13 262 3.2 4.8 0.00 0.00 0.00 81 1015.1
20260503024210 13 180 0.0 1.6 0.00 0.00 0.00 80 1014.8
20260503023707 13 211 4.8 8.0 0.00 0.00 0.00 80 1014.6
20260503023204 14 206 3.2 4.8 0.00 0.00 0.00 79 1014.6
20260503022700 14 201 4.8 4.8 0.00 0.00 0.00 78 1014.9
20260503022159 14 156 1.6 8.0 0.00 0.00 0.00 78 1015.1
20260503021657 14 211 4.8 11.3 0.00 0.00 0.00 77 1014.8
20260503021153 15 231 4.8 11.3 0.00 0.00 0.00 76 1015.0
20260503020650 15 185 4.8 4.8 0.00 0.00 0.00 75 1014.9
20260503020148 15 181 1.6 4.8 0.00 0.00 0.00 74 1014.9
20260503015644 15 232 3.2 4.8 0.00 0.00 0.00 74 1015.0
20260503015141 15 198 3.2 8.0 0.00 0.00 0.00 73 1014.9
20260503014637 15 247 8.0 11.3 0.00 0.00 0.00 72 1014.9
20260503014135 15 229 3.2 9.7 0.00 0.00 0.00 70 1015.1
20260503013632 15 205 4.8 4.8 0.00 0.00 0.00 70 1014.9
20260503013130 16 182 8.0 12.9 0.00 0.00 0.00 69 1014.9
20260503012627 16 257 4.8 9.7 0.00 0.00 0.00 69 1015.1
20260503012124 16 281 6.4 9.7 0.00 0.00 0.00 68 1015.2
20260503011620 16 224 3.2 9.7 0.00 0.00 0.00 69 1015.1
20260503011118 16 218 11.3 16.1 0.00 0.00 0.00 68 1015.0
20260503010614 17 211 4.8 11.3 0.00 0.00 0.00 66 1015.1
20260503010111 16 245 3.2 4.8 0.00 0.00 0.00 67 1015.2
20260503005608 17 251 9.7 11.3 0.00 0.00 0.00 65 1015.2
20260503005106 16 196 3.2 8.0 0.00 0.00 0.00 66 1015.2
20260503004601 16 216 6.4 14.5 0.00 0.00 0.00 67 1015.3
20260503004100 16 181 8.0 14.5 0.00 0.00 0.00 66 1015.1
20260503003556 17 212 9.7 14.5 0.00 0.00 0.00 65 1015.0
20260503003053 16 209 8.0 16.1 0.00 0.00 0.00 66 1015.4
20260503002550 17 199 9.7 16.1 0.00 0.00 0.00 66 1015.0
20260503002047 17 201 4.8 9.7 0.00 0.00 0.00 65 1015.2
20260503001543 17 246 4.8 14.5 0.00 0.00 0.00 66 1015.0
20260503001041 17 201 8.0 16.1 0.00 0.00 0.00 64 1015.0
20260503000538 17 226 8.0 14.5 0.00 0.00 0.00 63 1015.2
20260503000035 17 224 3.2 11.3 0.00 0.00 0.00 63 1015.1
20260502235531 17 220 9.7 12.9 0.00 0.00 0.00 65 1015.1
20260502235030 17 177 1.6 14.5 0.00 0.00 0.00 64 1015.4
20260502234525 17 240 8.0 11.3 0.00 0.00 0.00 65 1015.4
20260502234023 17 222 11.3 14.5 0.00 0.00 0.00 63 1015.2
20260502233518 17 187 8.0 12.9 0.00 0.00 0.00 62 1015.4
20260502233015 17 195 6.4 12.9 0.00 0.00 0.00 63 1015.4
20260502232512 17 229 9.7 14.5 0.00 0.00 0.00 64 1015.5
20260502232009 17 325 9.7 11.3 0.00 0.00 0.00 64 1015.6
20260502231506 18 182 6.4 11.3 0.00 0.00 0.00 63 1015.6
20260502231004 18 235 3.2 12.9 0.00 0.00 0.00 62 1015.5
20260502230502 17 193 6.4 11.3 0.00 0.00 0.00 63 1015.7
20260502230000 17 211 4.8 14.5 0.00 0.00 0.00 63 1015.7
20260502225455 18 222 9.7 14.5 0.00 0.00 0.00 62 1016.0